ATLAS 5 CENTAUR DEB, 46869

Orbit data source: Space-Track

ATLAS 5 CENTAUR DEB, 46869 is space debris in HEO originally from a launch on Wed, 17 Oct 2018 UTC launched from the Air Force Eastern Test Range (AFETR). Debris objects in space refer to the collection of defunct objects orbiting the Earth. Examples of debris include non-operational satellites, rocket bodies, and fragments generated from explosions, collisions, or faulty payload assembly.

Loading next visibility...
ATLAS 5 CENTAUR DEB details
Identifier
46869, 2018-079EA
Orbit
HEO
Last TLE update3 days ago
Origin
Flag of USULA (US)
ManufacturerULA Decatur
MissionSpacecraft
Bus & MotorUnknown
MassUnknown
Launch date (UTC)
2018-10-17 (6 years ago)
Launch vehicleUnknown
Launch site
Air Force Eastern Test Range (AFETR)
Object type
Payload
Rocket body
Debris
Shape & HBRUnknown
Radar Cross SectionRCS unknown

Expand to show TLE details & history

TLE from 3 days ago
0 ATLAS 5 CENTAUR DEB
1 46869U 18079EA  24345.38107028 -.00000076  00000-0  00000-0 0  9999
2 46869  12.6119  81.3373 4672475 225.6887  84.8834  1.83280772 27487
Epoch: 2024-12-10T09:08Z
Definitive object data (Epoch: 2024-12-10T09:08:44.472Z)
Latitude-0.00001°
Longitude-135.51714°
Altitude26,365.277 km
Speed3.196 km/s
True Right ascension05h 25m 02s
True Declination0° 00' 00"
Sunlit
Object was in daylight at TLE epoch
Visualization TLE readout
Latitude12.22516°
Longitude-60.49195°
Altitude30,776.989 km
Speed2.706 km/s
Apparent Right ascension10h 51m 23s
Apparent Declination6° 27' 24"
Sunlit
Object is in daylight
Visualization observer readout
Local Sidereal Time06:59:46
Azimuth106.701° ESE
Elevation28.498°
Doppler factor1
Orbital elements
Apogee altitude35,008.473 km
Perigee altitude8,649.198 km
Semi-major axis28,206.972 km
Eccentricity0.4672475
Inclination12.6119°
RAAN81.3373°
Arg. of periapsis225.6887°
True anomaly134.27398°
Mean anomaly84.8834°
Eccentric anomaly110.03466°
Mean motion0.45815 °/min
BSTARUnknown
Orbital period785.77 mins
Loading maneuver chart data...

ATLAS 5 CENTAUR DEB Visibility forecast

Observer location: undefined°, undefined

Span
Click to sort rows by Start time (UTC) header in descending order
Start Az.
Max El. time (UTC)
Max El. Az.
Max El.
End time (UTC)
End Az.
144 mins2024-12-13 08:30:10.071Z106.721° ESE2024-12-13 08:35:10.071Z106.703° ESE25.507°2024-12-13 10:54:10.071Z97.983° ESE
376 mins2024-12-14 02:14:10.071Z206.461° SW2024-12-14 08:30:10.071Z139.353° SSE36.259°2024-12-14 08:30:10.071Z139.353° SSE
|